Nashua, NH

5:48 PM EDT on March 28, 2017 (GMT -0400)
Boire

Weather History for KASH - March, 2013

Change the Weather History Date:

Tuesday, March 19, 2013

  Actual Average Record
Temperature  
Mean Temperature 30 °F -  
Max Temperature 32 °F 46 °F 79 °F (2012)
Min Temperature 26 °F 23 °F -9 °F (1967)
Degree Days  
Heating Degree Days 35    
Moisture  
Dew Point 29 °F    
Average Humidity 91    
Maximum Humidity 96    
Minimum Humidity 84    
Precipitation  
Precipitation 0.03 in - - ()
Sea Level Pressure  
Sea Level Pressure 30.06 in    
Wind  
Wind Speed 8 mph (NE)    
Max Wind Speed 18 mph    
Max Gust Speed 23 mph    
Visibility 1 miles    
Events Fog , Snow    
Averages and records for this station are not official NWS values.
T = Trace of Precipitation, MM = Missing Value Source: NWS Daily Summary

Daily Weather History Graph

Daily Weather History Graph

Search for Another Location

Airport or City:

Trip Planner

Search our weather history database for the weather conditions in past years. The results will help you decide how hot, cold, wet, or windy it might be!

Date:

Astronomy

Mar. 19, 2013 Rise Set
Actual Time 6:50 AM EDT 6:57 PM EDT
Civil Twilight 6:22 AM EDT 7:25 PM EDT
Nautical Twilight 5:49 AM EDT 7:58 PM EDT
Astronomical Twilight 5:15 AM EDT 8:32 PM EDT
Moon 11:30 AM EDT (3/19) 1:49 AM EDT (3/19)
Length of Visible Light 13h 03m
Length of Day
12h 06m
Waxing Crescent, 49% of the Moon is Illuminated
Mar 19
Waxing Crescent
Mar 19
First Quarter
Mar 27
Full
Apr 3
Last Quarter
Apr 10
New

Hourly Weather History & Observations

Time (EDT) Temp. Windchill Dew Point Humidity Pressure Visibility Wind Dir Wind Speed Gust Speed Precip Events Conditions
12:06 AM 28.4 °F 22.2 °F 26.6 °F 93% 30.24 in 1.5 mi ESE 5.8 mph - N/A   Mostly Cloudy
12:16 AM 28.4 °F 21.2 °F 26.6 °F 93% 30.23 in 1.8 mi SE 6.9 mph - N/A   Mostly Cloudy
12:21 AM 28.4 °F 23.3 °F 26.6 °F 93% 30.23 in 1.2 mi ESE 4.6 mph - N/A   Mostly Cloudy
12:39 AM 28.4 °F 22.2 °F 26.6 °F 93% 30.21 in 1.0 mi East 5.8 mph - N/A   Mostly Cloudy
12:51 AM 28.0 °F 21.7 °F 26.1 °F 92% 30.97 in 0.8 mi ESE 5.8 mph - N/A   Mist
1:06 AM 28.4 °F 21.2 °F 26.6 °F 93% 30.19 in 0.8 mi ESE 6.9 mph - N/A   Clear
1:51 AM 28.0 °F 20.8 °F 26.1 °F 92% 30.93 in 0.8 mi East 6.9 mph - N/A   Clear
2:04 AM 28.4 °F 20.4 °F 26.6 °F 93% 30.15 in 0.8 mi East 8.1 mph - N/A   Mostly Cloudy
2:16 AM 28.4 °F 22.2 °F 26.6 °F 93% 30.14 in 0.8 mi ENE 5.8 mph - N/A   Mostly Cloudy
2:51 AM 28.0 °F 21.7 °F 26.1 °F 92% 30.88 in 1.0 mi East 5.8 mph - N/A   Mist
2:58 AM 28.4 °F 21.2 °F 26.6 °F 93% 30.11 in 0.8 mi East 6.9 mph - N/A   Mist
3:07 AM 28.4 °F 22.2 °F 26.6 °F 93% 30.11 in 0.8 mi East 5.8 mph - N/A   Clear
3:38 AM 28.4 °F 22.2 °F 26.6 °F 93% 30.10 in 1.0 mi East 5.8 mph - N/A   Mist
3:51 AM 28.0 °F 22.8 °F 27.1 °F 96% 30.87 in 0.8 mi East 4.6 mph - N/A   Mist
3:59 AM 28.4 °F 23.3 °F 26.6 °F 93% 30.10 in 1.0 mi East 4.6 mph - N/A   Mostly Cloudy
4:15 AM 28.4 °F - 26.6 °F 93% 30.10 in 0.8 mi Calm Calm - N/A   Mist
4:33 AM 28.4 °F 23.3 °F 26.6 °F 93% 30.08 in 1.0 mi ENE 4.6 mph - N/A   Mist
4:51 AM 29.1 °F 23.0 °F 27.1 °F 92% 30.84 in 0.8 mi ENE 5.8 mph - N/A   Mist
5:06 AM 28.4 °F 22.2 °F 26.6 °F 93% 30.05 in 0.8 mi ENE 5.8 mph - N/A   Clear
5:41 AM 30.2 °F 22.6 °F 28.4 °F 93% 30.06 in 1.0 mi East 8.1 mph - N/A   Mist
6:12 AM 30.2 °F 21.3 °F 28.4 °F 93% 30.06 in 1.0 mi East 10.4 mph - N/A   Mostly Cloudy
6:26 AM 30.2 °F 21.3 °F 28.4 °F 93% 30.05 in 1.2 mi East 10.4 mph - N/A   Mostly Cloudy
6:41 AM 30.2 °F 21.3 °F 28.4 °F 93% 30.04 in 1.8 mi East 10.4 mph - N/A   Mostly Cloudy
6:51 AM 30.0 °F 21.7 °F 28.0 °F 92% 30.80 in 1.5 mi East 9.2 mph - N/A   Mostly Cloudy
6:57 AM 30.2 °F 20.8 °F 28.4 °F 93% 30.03 in 1.0 mi East 11.5 mph - N/A   Mostly Cloudy
7:19 AM 30.2 °F 21.3 °F 28.4 °F 93% 30.02 in 0.8 mi East 10.4 mph - N/A   Mostly Cloudy
7:28 AM 30.2 °F 21.9 °F 28.4 °F 93% 30.02 in 1.0 mi East 9.2 mph - N/A   Mostly Cloudy
7:51 AM 31.1 °F 21.9 °F 29.1 °F 92% 30.77 in 0.8 mi East 11.5 mph - N/A   Mostly Cloudy
8:29 AM 30.2 °F 25.4 °F 28.4 °F 93% 29.99 in 0.8 mi East 4.6 mph - N/A   Mostly Cloudy
8:39 AM 30.2 °F 22.6 °F 28.4 °F 93% 29.98 in 0.5 mi East 8.1 mph - N/A Fog Light Freezing Fog
8:51 AM 32.0 °F 23.6 °F 30.0 °F 92% 30.73 in 0.8 mi East 10.4 mph - N/A   Mostly Cloudy
8:59 AM 32.0 °F 25.6 °F 30.2 °F 93% 29.97 in 0.5 mi East 6.9 mph - N/A Fog Fog
9:10 AM 32.0 °F 24.2 °F 30.2 °F 93% 29.97 in 0.8 mi East 9.2 mph - N/A   Mostly Cloudy
9:21 AM 32.0 °F 25.6 °F 30.2 °F 93% 29.96 in 1.0 mi ENE 6.9 mph - N/A   Mostly Cloudy
9:31 AM 32.0 °F 24.8 °F 30.2 °F 93% 29.96 in 1.2 mi East 8.1 mph - N/A   Mostly Cloudy
9:51 AM 32.0 °F 22.1 °F 30.0 °F 92% 30.71 in 1.2 mi East 13.8 mph - N/A   Overcast
9:59 AM 33.8 °F 25.8 °F 30.2 °F 87% 29.95 in 1.5 mi East 10.4 mph - N/A   Overcast
10:03 AM 33.8 °F 26.4 °F 30.2 °F 87% 29.94 in 1.2 mi East 9.2 mph - N/A   Overcast
10:12 AM 33.8 °F 26.4 °F 30.2 °F 87% 29.94 in 1.0 mi East 9.2 mph - N/A   Overcast
10:22 AM 33.8 °F 27.7 °F 30.2 °F 87% 29.94 in 1.0 mi ENE 6.9 mph - N/A   Overcast
10:26 AM 33.8 °F 25.8 °F 30.2 °F 87% 29.94 in 0.8 mi East 10.4 mph - N/A   Mostly Cloudy
10:34 AM 33.8 °F 25.8 °F 30.2 °F 87% 29.93 in 0.8 mi East 10.4 mph - N/A   Mostly Cloudy
10:51 AM 32.9 °F 24.7 °F 31.1 °F 93% 30.67 in 0.5 mi East 10.4 mph - N/A Fog Fog
11:07 AM 33.8 °F 25.3 °F 30.2 °F 87% 29.90 in 0.8 mi East 11.5 mph 18.4 mph N/A   Mist
11:14 AM 33.8 °F 24.3 °F 30.2 °F 87% 29.89 in 1.0 mi East 13.8 mph 18.4 mph N/A   Clear
11:24 AM 33.8 °F 28.6 °F 30.2 °F 87% 29.89 in 0.8 mi Variable 5.8 mph - N/A   Overcast
11:37 AM 33.8 °F 27.0 °F 30.2 °F 87% 29.89 in 1.0 mi ENE 8.1 mph 18.4 mph N/A   Overcast
11:51 AM 32.9 °F 23.7 °F 31.1 °F 93% 30.63 in 1.0 mi East 12.7 mph 18.4 mph N/A   Overcast
11:58 AM 33.8 °F 25.3 °F 30.2 °F 87% 29.87 in 1.0 mi East 11.5 mph - N/A   Mist
12:09 PM 33.8 °F 22.8 °F 30.2 °F 87% 29.84 in 0.8 mi East 18.4 mph 23.0 mph N/A   Mist
12:28 PM 33.8 °F 26.4 °F 30.2 °F 87% 29.85 in 0.8 mi ENE 9.2 mph 18.4 mph N/A   Mist
12:44 PM 33.8 °F 25.3 °F 30.2 °F 87% 29.83 in 0.8 mi East 11.5 mph 18.4 mph N/A   Mist
12:51 PM 32.9 °F 24.7 °F 31.1 °F 93% 30.58 in 1.0 mi East 10.4 mph - N/A   Mist
1:08 PM 33.8 °F 25.3 °F 30.2 °F 87% 29.82 in 1.2 mi East 11.5 mph 20.7 mph N/A   Mostly Cloudy
1:11 PM 33.8 °F 24.8 °F 30.2 °F 87% 29.81 in 1.0 mi ENE 12.7 mph 20.7 mph N/A   Mostly Cloudy
1:51 PM 32.9 °F 24.7 °F 31.1 °F 93% 30.53 in 1.0 mi ENE 10.4 mph - N/A   Mostly Cloudy
2:01 PM 33.8 °F 27.0 °F 30.2 °F 87% 29.77 in 0.8 mi NE 8.1 mph - N/A   Mostly Cloudy
2:17 PM 33.8 °F 28.6 °F 30.2 °F 87% 29.81 in 1.0 mi North 5.8 mph - N/A   Mostly Cloudy
2:27 PM 33.8 °F 26.4 °F 30.2 °F 87% 29.81 in 0.5 mi North 9.2 mph - N/A Fog Fog
2:39 PM 33.8 °F 26.4 °F 30.2 °F 87% 29.81 in 0.2 mi North 9.2 mph - N/A Fog Fog
2:51 PM 32.9 °F 26.7 °F 31.1 °F 93% 30.57 in 0.2 mi North 6.9 mph - N/A Fog Fog
3:27 PM 32.0 °F 27.5 °F 30.2 °F 93% 29.78 in 0.5 mi North 4.6 mph - N/A Fog Fog
3:42 PM 33.8 °F 27.0 °F 30.2 °F 87% 29.77 in 0.5 mi NNE 8.1 mph - N/A Fog Fog
3:51 PM 32.0 °F 24.2 °F 31.1 °F 96% 30.51 in 0.5 mi NE 9.2 mph - N/A Fog Fog
3:59 PM 32.0 °F 24.2 °F 30.2 °F 93% 29.73 in 0.2 mi NE 9.2 mph - N/A Fog Fog
4:11 PM 32.0 °F 23.0 °F 30.2 °F 93% 29.68 in 0.2 mi ENE 11.5 mph 19.6 mph N/A Fog Fog
4:19 PM 32.0 °F 24.8 °F 30.2 °F 93% 29.70 in 0.5 mi NE 8.1 mph - N/A Fog Fog
4:27 PM 33.8 °F 27.7 °F 30.2 °F 87% 29.70 in 0.8 mi NNE 6.9 mph - N/A   Mist
4:42 PM 33.8 °F 27.7 °F 30.2 °F 87% 29.69 in 0.5 mi NE 6.9 mph - N/A Fog Fog
4:51 PM 32.9 °F 25.3 °F 31.1 °F 93% 30.45 in 0.5 mi NE 9.2 mph - N/A Fog Fog
4:56 PM 33.8 °F 25.8 °F 30.2 °F 87% 29.69 in 0.8 mi ENE 10.4 mph - N/A   Mist
4:58 PM 33.8 °F 26.4 °F 30.2 °F 87% 29.69 in 1.0 mi NE 9.2 mph - N/A   Mist
5:02 PM 33.8 °F 26.4 °F 30.2 °F 87% 29.68 in 1.5 mi ENE 9.2 mph 16.1 mph N/A   Mostly Cloudy
5:10 PM 33.8 °F 27.0 °F 30.2 °F 87% 29.68 in 3.0 mi NNE 8.1 mph 20.7 mph 0.00 in Snow Light Snow
5:51 PM 32.9 °F 25.3 °F 30.0 °F 89% 30.44 in 2.5 mi NNE 9.2 mph 17.3 mph 0.00 in Snow Light Snow
6:02 PM 33.8 °F 27.7 °F 30.2 °F 87% 29.69 in 1.5 mi North 6.9 mph - 0.00 in Snow Light Snow
6:09 PM 32.0 °F 26.4 °F 30.2 °F 93% 29.68 in 1.0 mi NNE 5.8 mph - 0.00 in Snow Light Snow
6:30 PM 32.0 °F 25.6 °F 30.2 °F 93% 29.67 in 1.2 mi NNE 6.9 mph - 0.00 in Snow Light Snow
6:42 PM 32.0 °F 25.6 °F 30.2 °F 93% 29.67 in 1.2 mi North 6.9 mph - 0.00 in Snow Light Snow
6:51 PM 32.0 °F 26.4 °F 30.0 °F 92% 30.43 in 1.0 mi North 5.8 mph - 0.01 in Snow Light Snow
7:13 PM 32.0 °F 24.8 °F 30.2 °F 93% 29.68 in 1.2 mi North 8.1 mph - 0.00 in Snow Light Snow
7:22 PM 32.0 °F 24.8 °F 30.2 °F 93% 29.67 in 1.5 mi North 8.1 mph - 0.00 in Snow Light Snow
7:33 PM 30.2 °F 21.9 °F 28.4 °F 93% 29.69 in 1.2 mi NNW 9.2 mph - 0.00 in Snow Light Snow
7:42 PM 30.2 °F 22.6 °F 28.4 °F 93% 29.68 in 1.0 mi North 8.1 mph - 0.01 in Snow Light Snow
7:51 PM 31.1 °F 24.5 °F 29.1 °F 92% 30.43 in 1.2 mi North 6.9 mph - 0.01 in Snow Light Snow
8:10 PM 30.2 °F 21.3 °F 28.4 °F 93% 29.68 in 1.5 mi North 10.4 mph - 0.00 in Snow Light Snow
8:27 PM 30.2 °F 21.3 °F 28.4 °F 93% 29.68 in 1.2 mi North 10.4 mph 17.3 mph 0.00 in Snow Light Snow
8:51 PM 30.0 °F 21.7 °F 28.0 °F 92% 30.45 in 1.2 mi NNW 9.2 mph - 0.01 in   Overcast
8:58 PM 30.2 °F 20.8 °F 26.6 °F 86% 29.70 in 1.5 mi North 11.5 mph 16.1 mph N/A   Overcast
9:33 PM 28.4 °F 18.0 °F 26.6 °F 93% 29.72 in 2.0 mi NNW 12.7 mph - N/A   Overcast
9:43 PM 28.4 °F 19.1 °F 26.6 °F 93% 29.72 in 3.0 mi NNW 10.4 mph - N/A   Overcast
9:51 PM 29.1 °F 18.9 °F 26.1 °F 88% 30.48 in 3.0 mi NNW 12.7 mph - N/A   Mostly Cloudy
10:04 PM 28.4 °F 19.1 °F 26.6 °F 93% 29.72 in 2.0 mi NNW 10.4 mph - N/A   Overcast
10:11 PM 28.4 °F 19.1 °F 24.8 °F 86% 29.72 in 1.8 mi NNW 10.4 mph - N/A   Overcast
10:21 PM 28.4 °F 18.5 °F 24.8 °F 86% 29.72 in 2.5 mi NNW 11.5 mph - N/A   Overcast
10:26 PM 28.4 °F 18.0 °F 24.8 °F 86% 29.73 in 3.0 mi NNW 12.7 mph - N/A   Overcast
10:34 PM 28.4 °F 18.0 °F 24.8 °F 86% 29.72 in 4.0 mi NNW 12.7 mph - N/A   Overcast
10:51 PM 27.1 °F 15.9 °F 23.0 °F 84% 30.48 in 8.0 mi NNW 13.8 mph - N/A   Mostly Cloudy
11:51 PM 26.1 °F 15.6 °F 22.1 °F 85% 30.47 in 9.0 mi NNW 11.5 mph - N/A   Scattered Clouds